{"data":{"norad_id":37836,"intl_designator":"2011-057A","name":"EUTELSAT 16A","alt_names":[],"object_type":"PAYLOAD","status":"ACTIVE","operator":null,"country":"EUTE","launch_date":"2011-10-07","launch_site_code":"XICLF","launch_vehicle":null,"mission":null,"orbit_class":"UNKNOWN","rcs_meters":7.6593,"size_class":null,"mass_kg":null,"dimensions":null,"purposes":["comms"],"wikipedia_slug":null,"has_3d_model":false,"image_url":null,"decayed_at":null,"tle_current":{"epoch":"2026-09-20T03:18:42.667776Z","epoch_age_seconds":53279,"freshness":"FRESH","line1":"1 37836U 11057A   26263.13799384  .00000100  00000+0  00000+0 0  9993","line2":"2 37836   0.1062  65.4286 0005492 113.5668 245.7171  1.00272941  8280","mean_motion":1.00272941,"eccentricity":0.0005492,"inclination_deg":0.1062,"raan_deg":65.4286,"arg_perigee_deg":113.5668,"mean_anomaly_deg":245.7171,"bstar":0,"rev_number":828,"period_min":1436.0803479375,"perigee_km":35763.114202724,"apogee_km":35809.427588356,"semimajor_km":42164.40789554,"source":"CELESTRAK","updated_at":"2026-09-20T09:00:35.171320Z"}}}